| time (UTC) | temp C | wind direction | speed KPH | gust KPH | rain 1hr cm | rain 24hr cm | rain mn cm | humidity % | barometer mb |
| 20260506012423 | 12 | 0 | 0.0 | 0.0 | 0.03 | 0.84 | 0.05 | 60 | 1010.9 |
| 20260506011923 | 12 | 0 | 0.0 | 0.0 | 0.03 | 0.84 | 0.05 | 59 | 1010.9 |
| 20260506011422 | 12 | 0 | 0.0 | 0.0 | 0.05 | 0.84 | 0.05 | 59 | 1010.9 |
| 20260506010922 | 12 | 0 | 0.0 | 0.0 | 0.05 | 0.84 | 0.05 | 59 | 1011.0 |
| 20260506010423 | 12 | 0 | 0.0 | 0.0 | 0.05 | 0.84 | 0.05 | 59 | 1011.0 |
| 20260506005922 | 12 | 0 | 0.0 | 0.0 | 0.05 | 0.79 | 0.05 | 59 | 1011.2 |
| 20260506005423 | 12 | 0 | 0.0 | 0.0 | 0.05 | 0.79 | 0.05 | 59 | 1011.1 |
| 20260506004924 | 12 | 0 | 0.0 | 0.0 | 0.05 | 0.79 | 0.05 | 59 | 1011.5 |
| 20260506004639 | 12 | 0 | 0.0 | 0.0 | 0.05 | 0.79 | 0.05 | 59 | 1011.6 |
| 20260506003923 | 12 | 0 | 0.0 | 0.0 | 0.05 | 0.79 | 0.05 | 59 | 1011.7 |
| 20260506003423 | 12 | 0 | 0.0 | 0.0 | 0.05 | 0.79 | 0.05 | 59 | 1011.8 |
| 20260506003404 | 12 | 0 | 0.0 | 0.0 | 0.03 | 0.81 | 0.03 | 59 | 1011.9 |
| 20260506002422 | 12 | 0 | 0.0 | 0.0 | 0.03 | 0.81 | 0.03 | 59 | 1012.0 |
| 20260506001923 | 12 | 0 | 0.0 | 0.0 | 0.03 | 0.81 | 0.03 | 59 | 1012.1 |
| 20260506001423 | 12 | 0 | 0.0 | 0.0 | 0.00 | 0.81 | 0.00 | 59 | 1012.3 |
| 20260506000922 | 12 | 0 | 0.0 | 0.0 | 0.00 | 0.86 | 0.00 | 59 | 1012.4 |
| 20260506000423 | 12 | 0 | 0.0 | 0.0 | 0.00 | 0.89 | 0.00 | 59 | 1012.5 |
| 20260505235922 | 13 | 0 | 0.0 | 0.0 | 0.00 | 0.89 | 0.00 | 59 | 1012.4 |
| 20260505235422 | 13 | 0 | 0.0 | 0.0 | 0.00 | 0.91 | 0.00 | 59 | 1012.4 |
| 20260505234921 | 13 | 0 | 0.0 | 0.0 | 0.00 | 0.94 | 0.00 | 59 | 1012.5 |
| 20260505234422 | 13 | 0 | 0.0 | 0.0 | 0.00 | 0.94 | 0.00 | 58 | 1012.5 |
| 20260505234141 | 13 | 0 | 0.0 | 0.0 | 0.00 | 0.94 | 0.00 | 58 | 1012.5 |
| 20260505233643 | 13 | 0 | 0.0 | 0.0 | 0.00 | 0.94 | 0.00 | 58 | 1012.6 |
| 20260505232922 | 13 | 0 | 0.0 | 0.0 | 0.00 | 0.94 | 0.00 | 58 | 1012.7 |
| 20260505232422 | 13 | 0 | 0.0 | 0.0 | 0.00 | 0.94 | 0.00 | 58 | 1012.7 |
| 20260505231921 | 13 | 0 | 0.0 | 0.0 | 0.00 | 0.94 | 0.00 | 58 | 1012.6 |
| 20260505231418 | 13 | 0 | 0.0 | 0.0 | 0.00 | 0.94 | 0.00 | 58 | 1012.7 |
| 20260505231137 | 13 | 0 | 0.0 | 0.0 | 0.00 | 0.94 | 0.00 | 58 | 1012.7 |
| 20260505230636 | 13 | 0 | 0.0 | 0.0 | 0.00 | 0.94 | 0.00 | 58 | 1012.7 |
| 20260505225916 | 13 | 0 | 0.0 | 0.0 | 0.00 | 0.94 | 0.00 | 58 | 1012.7 |
| 20260505225405 | 13 | 0 | 0.0 | 0.0 | 0.00 | 0.94 | 0.00 | 58 | 1012.7 |
| 20260505224906 | 13 | 0 | 0.0 | 0.0 | 0.00 | 0.94 | 0.00 | 58 | 1012.7 |
| 20260505224406 | 13 | 0 | 0.0 | 0.0 | 0.00 | 0.94 | 0.00 | 58 | 1012.9 |
| 20260505223905 | 13 | 0 | 0.0 | 0.0 | 0.00 | 0.94 | 0.00 | 58 | 1012.9 |
| 20260505223406 | 13 | 0 | 0.0 | 0.0 | 0.00 | 0.94 | 0.00 | 58 | 1013.0 |
| 20260505222906 | 13 | 0 | 0.0 | 1.6 | 0.00 | 0.94 | 0.00 | 58 | 1013.0 |
| 20260505222629 | 13 | 0 | 0.0 | 1.6 | 0.00 | 0.94 | 0.00 | 58 | 1013.0 |
| 20260505221906 | 13 | 0 | 0.0 | 1.6 | 0.00 | 0.94 | 0.00 | 58 | 1013.0 |
| 20260505221406 | 13 | 0 | 0.0 | 4.8 | 0.00 | 0.94 | 0.00 | 57 | 1013.1 |
| 20260505220905 | 13 | 0 | 0.0 | 4.8 | 0.00 | 0.94 | 0.00 | 57 | 1012.9 |
| 20260505220405 | 13 | 0 | 0.0 | 0.0 | 0.00 | 0.94 | 0.00 | 57 | 1012.8 |
| 20260505220128 | 13 | 0 | 0.0 | 0.0 | 0.00 | 0.94 | 0.94 | 57 | 1012.9 |
| 20260505215405 | 13 | 0 | 0.0 | 0.0 | 0.00 | 0.94 | 0.94 | 57 | 1013.1 |
| 20260505214906 | 13 | 0 | 0.0 | 0.0 | 0.00 | 0.94 | 0.94 | 57 | 1013.0 |
| 20260505214626 | 13 | 0 | 0.0 | 0.0 | 0.00 | 0.94 | 0.94 | 57 | 1012.9 |
| 20260505213905 | 13 | 0 | 0.0 | 0.0 | 0.00 | 0.94 | 0.94 | 57 | 1013.0 |
| 20260505213406 | 13 | 0 | 0.0 | 0.0 | 0.00 | 0.94 | 0.94 | 57 | 1013.2 |
| 20260505212905 | 13 | 0 | 0.0 | 0.0 | 0.00 | 0.94 | 0.94 | 57 | 1013.3 |
| 20260505212405 | 13 | 0 | 0.0 | 0.0 | 0.00 | 0.94 | 0.94 | 58 | 1013.5 |
| 20260505211905 | 13 | 0 | 0.0 | 0.0 | 0.00 | 0.94 | 0.94 | 58 | 1013.5 |
| 20260505211405 | 13 | 0 | 0.0 | 0.0 | 0.00 | 0.94 | 0.94 | 58 | 1013.5 |
| 20260505210905 | 13 | 0 | 0.0 | 0.0 | 0.00 | 0.94 | 0.94 | 58 | 1013.5 |
| 20260505210405 | 12 | 0 | 0.0 | 0.0 | 0.00 | 0.94 | 0.94 | 58 | 1013.4 |
| 20260505210128 | 12 | 0 | 0.0 | 0.0 | 0.00 | 0.94 | 0.94 | 58 | 1013.3 |
| 20260505205406 | 12 | 0 | 0.0 | 0.0 | 0.00 | 0.94 | 0.94 | 58 | 1013.4 |
| 20260505204906 | 12 | 0 | 0.0 | 0.0 | 0.00 | 0.94 | 0.94 | 58 | 1013.4 |
| 20260505204405 | 12 | 0 | 0.0 | 0.0 | 0.00 | 0.94 | 0.94 | 58 | 1013.5 |
| 20260505203907 | 12 | 0 | 0.0 | 0.0 | 0.00 | 0.94 | 0.94 | 58 | 1013.5 |
| 20260505203635 | 12 | 0 | 0.0 | 0.0 | 0.00 | 0.94 | 0.94 | 58 | 1013.4 |
| 20260505202906 | 12 | 0 | 0.0 | 0.0 | 0.00 | 0.94 | 0.94 | 58 | 1013.5 |
| 20260505202405 | 12 | 0 | 0.0 | 0.0 | 0.00 | 0.94 | 0.94 | 58 | 1013.5 |
| 20260505201904 | 13 | 0 | 0.0 | 1.6 | 0.00 | 0.94 | 0.94 | 58 | 1013.5 |
| 20260505201623 | 13 | 0 | 0.0 | 1.6 | 0.00 | 0.94 | 0.94 | 58 | 1013.4 |
| 20260505200904 | 13 | 0 | 0.0 | 3.2 | 0.00 | 0.94 | 0.94 | 58 | 1013.4 |
| 20260505200404 | 13 | 0 | 1.6 | 3.2 | 0.00 | 0.94 | 0.94 | 58 | 1013.4 |
| 20260505195905 | 13 | 0 | 0.0 | 1.6 | 0.00 | 0.94 | 0.94 | 58 | 1013.3 |
| 20260505195404 | 13 | 0 | 0.0 | 1.6 | 0.00 | 0.94 | 0.94 | 58 | 1013.3 |
| 20260505194905 | 13 | 0 | 0.0 | 4.8 | 0.00 | 0.94 | 0.94 | 58 | 1013.4 |
| 20260505194402 | 13 | 0 | 1.6 | 4.8 | 0.00 | 0.94 | 0.94 | 58 | 1013.3 |
| 20260505193904 | 13 | 0 | 1.6 | 4.8 | 0.00 | 0.94 | 0.94 | 58 | 1013.5 |
| 20260505193405 | 13 | 0 | 0.0 | 0.0 | 0.00 | 0.94 | 0.94 | 58 | 1013.4 |
| 20260505193129 | 13 | 0 | 0.0 | 3.2 | 0.00 | 0.94 | 0.94 | 57 | 1013.4 |
| 20260505192405 | 13 | 0 | 1.6 | 3.2 | 0.00 | 0.94 | 0.94 | 57 | 1013.3 |
| 20260505191904 | 13 | 0 | 0.0 | 1.6 | 0.00 | 0.94 | 0.94 | 57 | 1013.3 |
| 20260505191404 | 13 | 0 | 0.0 | 1.6 | 0.00 | 0.94 | 0.94 | 57 | 1013.2 |
| 20260505190905 | 13 | 0 | 0.0 | 1.6 | 0.00 | 0.94 | 0.94 | 57 | 1013.1 |
| 20260505190405 | 13 | 0 | 1.6 | 1.6 | 0.00 | 0.94 | 0.94 | 57 | 1013.1 |
| 20260505185904 | 13 | 0 | 0.0 | 0.0 | 0.00 | 0.94 | 0.94 | 57 | 1013.1 |
| 20260505185404 | 13 | 0 | 0.0 | 0.0 | 0.00 | 0.94 | 0.94 | 57 | 1013.1 |
| 20260505184905 | 13 | 0 | 0.0 | 0.0 | 0.00 | 0.94 | 0.94 | 57 | 1013.0 |
| 20260505184404 | 13 | 0 | 0.0 | 0.0 | 0.00 | 0.94 | 0.94 | 57 | 1013.0 |
| 20260505183904 | 13 | 0 | 0.0 | 0.0 | 0.00 | 0.94 | 0.94 | 57 | 1013.1 |
| 20260505183625 | 13 | 0 | 0.0 | 0.0 | 0.00 | 0.94 | 0.94 | 57 | 1013.1 |
| 20260505182904 | 13 | 0 | 0.0 | 3.2 | 0.00 | 0.94 | 0.94 | 57 | 1013.1 |
| 20260505182405 | 13 | 0 | 0.0 | 3.2 | 0.00 | 0.94 | 0.94 | 57 | 1013.0 |
| 20260505181905 | 13 | 0 | 0.0 | 1.6 | 0.00 | 0.94 | 0.94 | 56 | 1013.0 |
| 20260505181404 | 13 | 0 | 0.0 | 0.0 | 0.00 | 0.94 | 0.94 | 56 | 1013.0 |
| 20260505180904 | 13 | 0 | 0.0 | 0.0 | 0.00 | 0.94 | 0.94 | 56 | 1013.0 |
| 20260505180405 | 13 | 0 | 0.0 | 0.0 | 0.00 | 0.97 | 0.94 | 56 | 1013.0 |
| 20260505175904 | 14 | 0 | 0.0 | 1.6 | 0.00 | 0.97 | 0.94 | 56 | 1013.1 |
| 20260505175404 | 14 | 0 | 0.0 | 1.6 | 0.00 | 0.97 | 0.94 | 56 | 1013.0 |
| 20260505174905 | 14 | 0 | 0.0 | 1.6 | 0.00 | 0.97 | 0.94 | 56 | 1013.0 |
| 20260505174404 | 14 | 0 | 0.0 | 1.6 | 0.00 | 0.97 | 0.94 | 56 | 1013.1 |
| 20260505173904 | 14 | 0 | 0.0 | 1.6 | 0.00 | 0.99 | 0.94 | 56 | 1013.1 |
| 20260505173405 | 14 | 0 | 0.0 | 3.2 | 0.00 | 0.99 | 0.94 | 56 | 1013.1 |
| 20260505172904 | 14 | 0 | 1.6 | 3.2 | 0.00 | 0.99 | 0.94 | 56 | 1013.1 |
| 20260505172405 | 14 | 0 | 0.0 | 4.8 | 0.00 | 0.99 | 0.94 | 56 | 1013.0 |
| 20260505171905 | 14 | 0 | 0.0 | 4.8 | 0.00 | 0.99 | 0.94 | 56 | 1013.1 |
| 20260505171404 | 14 | 0 | 1.6 | 4.8 | 0.00 | 1.02 | 0.94 | 55 | 1013.1 |
| 20260505171124 | 14 | 0 | 1.6 | 4.8 | 0.00 | 1.02 | 0.94 | 55 | 1013.1 |
| 20260505170404 | 14 | 0 | 1.6 | 4.8 | 0.00 | 1.02 | 0.94 | 55 | 1013.2 |
| 20260505170134 | 14 | 0 | 3.2 | 4.8 | 0.00 | 1.02 | 0.94 | 54 | 1013.1 |
| 20260505165404 | 14 | 0 | 3.2 | 4.8 | 0.00 | 1.02 | 0.94 | 54 | 1013.2 |
| 20260505164904 | 14 | 0 | 3.2 | 6.4 | 0.00 | 1.02 | 0.94 | 54 | 1013.2 |
| 20260505164405 | 14 | 0 | 4.8 | 6.4 | 0.00 | 1.02 | 0.94 | 55 | 1013.3 |
| 20260505163904 | 14 | 0 | 3.2 | 8.0 | 0.00 | 1.02 | 0.94 | 54 | 1013.2 |
| 20260505163405 | 15 | 0 | 6.4 | 8.0 | 0.00 | 1.02 | 0.94 | 54 | 1013.2 |
| 20260505162905 | 15 | 0 | 3.2 | 6.4 | 0.00 | 1.02 | 0.94 | 54 | 1013.3 |
| 20260505162404 | 15 | 0 | 3.2 | 8.0 | 0.00 | 1.02 | 0.94 | 54 | 1013.4 |
| 20260505161905 | 15 | 0 | 4.8 | 9.7 | 0.00 | 1.02 | 0.94 | 54 | 1013.4 |
| 20260505161405 | 15 | 0 | 1.6 | 9.7 | 0.00 | 1.02 | 0.94 | 53 | 1013.3 |
| 20260505160905 | 15 | 0 | 6.4 | 8.0 | 0.00 | 1.02 | 0.94 | 53 | 1013.4 |
| 20260505160404 | 15 | 0 | 4.8 | 8.0 | 0.00 | 1.02 | 0.94 | 53 | 1013.2 |
| 20260505152905 | 15 | 0 | 3.2 | 9.7 | 0.00 | 1.02 | 0.94 | 52 | 1013.4 |
| 20260505152404 | 15 | 0 | 3.2 | 9.7 | 0.00 | 1.02 | 0.94 | 53 | 1013.3 |
| 20260505152126 | 15 | 0 | 1.6 | 6.4 | 0.00 | 1.02 | 0.94 | 53 | 1013.3 |
| 20260505151404 | 15 | 0 | 0.0 | 6.4 | 0.00 | 1.02 | 0.94 | 53 | 1013.3 |
| 20260505150905 | 15 | 0 | 1.6 | 6.4 | 0.00 | 1.02 | 0.94 | 52 | 1013.3 |
| 20260505150404 | 15 | 0 | 6.4 | 6.4 | 0.00 | 1.02 | 0.94 | 53 | 1013.4 |
| 20260505140404 | 13 | 0 | 1.6 | 4.8 | 0.00 | 1.02 | 0.94 | 57 | 1013.8 |
| 20260505124904 | 12 | 0 | 1.6 | 6.4 | 0.00 | 1.02 | 0.94 | 65 | 1014.3 |
| 20260505124404 | 12 | 0 | 3.2 | 6.4 | 0.00 | 1.02 | 0.94 | 65 | 1014.2 |
| 20260505123904 | 12 | 0 | 6.4 | 6.4 | 0.00 | 1.02 | 0.94 | 65 | 1014.4 |
| 20260505123404 | 12 | 0 | 3.2 | 6.4 | 0.00 | 1.02 | 0.94 | 65 | 1014.4 |
| 20260505122905 | 12 | 0 | 6.4 | 6.4 | 0.00 | 1.02 | 0.94 | 65 | 1014.4 |
| 20260505122405 | 12 | 0 | 3.2 | 6.4 | 0.00 | 1.02 | 0.94 | 65 | 1014.5 |
| 20260505121905 | 12 | 0 | 1.6 | 6.4 | 0.00 | 1.02 | 0.94 | 65 | 1014.5 |
| 20260505121623 | 12 | 0 | 0.0 | 8.0 | 0.00 | 1.02 | 0.94 | 65 | 1014.5 |
| 20260505121127 | 12 | 0 | 1.6 | 8.0 | 0.00 | 1.02 | 0.94 | 65 | 1014.4 |
| 20260505120632 | 12 | 0 | 3.2 | 6.4 | 0.00 | 1.02 | 0.94 | 66 | 1014.5 |
| 20260505115906 | 12 | 0 | 1.6 | 9.7 | 0.00 | 1.02 | 0.94 | 66 | 1014.5 |
| 20260505115406 | 11 | 0 | 3.2 | 9.7 | 0.00 | 1.02 | 0.94 | 65 | 1014.6 |
| 20260505114906 | 12 | 0 | 1.6 | 6.4 | 0.00 | 1.02 | 0.94 | 66 | 1014.6 |
| 20260505114406 | 12 | 0 | 4.8 | 6.4 | 0.00 | 1.02 | 0.94 | 65 | 1014.6 |
| 20260505113906 | 12 | 0 | 1.6 | 6.4 | 0.00 | 1.02 | 0.94 | 66 | 1014.6 |
| 20260505113350 | 12 | 0 | 3.2 | 6.4 | 0.00 | 1.02 | 0.94 | 66 | 1014.7 |
| 20260505112833 | 12 | 0 | 1.6 | 6.4 | 0.00 | 1.02 | 0.94 | 66 | 1014.6 |
| 20260505112307 | 12 | 0 | 1.6 | 6.4 | 0.00 | 1.02 | 0.94 | 66 | 1014.7 |
| 20260505111805 | 12 | 0 | 3.2 | 8.0 | 0.00 | 1.02 | 0.94 | 66 | 1014.7 |
| 20260505111305 | 11 | 0 | 3.2 | 8.0 | 0.00 | 1.02 | 0.94 | 66 | 1014.7 |
| 20260505110805 | 11 | 0 | 3.2 | 4.8 | 0.00 | 1.02 | 0.94 | 66 | 1014.8 |
| 20260505110305 | 11 | 0 | 3.2 | 6.4 | 0.00 | 1.02 | 0.94 | 65 | 1014.9 |
| 20260505101804 | 11 | 0 | 4.8 | 8.0 | 0.05 | 1.02 | 0.94 | 65 | 1015.1 |
| 20260505101304 | 11 | 0 | 4.8 | 8.0 | 0.05 | 1.02 | 0.94 | 65 | 1015.1 |
| 20260505100804 | 11 | 0 | 4.8 | 9.7 | 0.05 | 1.02 | 0.94 | 65 | 1015.1 |
| 20260505100304 | 11 | 0 | 8.0 | 9.7 | 0.05 | 1.02 | 0.94 | 64 | 1015.0 |
| 20260505095804 | 11 | 0 | 8.0 | 9.7 | 0.08 | 0.97 | 0.94 | 64 | 1015.1 |
| 20260505095305 | 11 | 0 | 4.8 | 9.7 | 0.08 | 0.97 | 0.94 | 63 | 1015.1 |
| 20260505095023 | 11 | 0 | 9.7 | 9.7 | 0.08 | 0.97 | 0.91 | 62 | 1015.0 |
| 20260505094304 | 11 | 0 | 8.0 | 9.7 | 0.05 | 0.97 | 0.91 | 62 | 1015.0 |
| 20260505093803 | 11 | 0 | 6.4 | 11.3 | 0.08 | 0.97 | 0.91 | 61 | 1014.9 |
| 20260505093304 | 11 | 0 | 8.0 | 11.3 | 0.08 | 0.97 | 0.91 | 61 | 1015.0 |
| 20260505092803 | 11 | 0 | 6.4 | 9.7 | 0.08 | 0.97 | 0.91 | 61 | 1015.0 |
| 20260505092523 | 11 | 0 | 4.8 | 9.7 | 0.05 | 0.97 | 0.89 | 60 | 1014.9 |
| 20260505091803 | 11 | 0 | 8.0 | 9.7 | 0.08 | 0.97 | 0.89 | 60 | 1015.0 |
| 20260505091302 | 11 | 0 | 8.0 | 9.7 | 0.08 | 0.97 | 0.89 | 60 | 1014.9 |
| 20260505090803 | 11 | 0 | 6.4 | 9.7 | 0.08 | 0.97 | 0.89 | 60 | 1014.9 |
| 20260505090303 | 11 | 0 | 3.2 | 4.8 | 0.05 | 0.97 | 0.89 | 60 | 1015.0 |
| 20260505085803 | 11 | 0 | 3.2 | 4.8 | 0.05 | 0.89 | 0.86 | 60 | 1014.9 |
| 20260505085304 | 11 | 0 | 1.6 | 3.2 | 0.05 | 0.89 | 0.86 | 60 | 1014.8 |
| 20260505084802 | 11 | 0 | 0.0 | 3.2 | 0.05 | 0.89 | 0.86 | 59 | 1014.8 |
| 20260505084302 | 11 | 0 | 1.6 | 3.2 | 0.05 | 0.89 | 0.86 | 60 | 1014.8 |
| 20260505083802 | 11 | 0 | 0.0 | 6.4 | 0.03 | 0.89 | 0.84 | 59 | 1014.8 |
| 20260505083302 | 11 | 0 | 1.6 | 6.4 | 0.03 | 0.89 | 0.84 | 59 | 1014.8 |
| 20260505083023 | 11 | 0 | 3.2 | 4.8 | 0.03 | 0.89 | 0.84 | 59 | 1014.8 |
| 20260505082304 | 11 | 0 | 0.0 | 4.8 | 0.03 | 0.89 | 0.84 | 59 | 1014.9 |
| 20260505081801 | 11 | 0 | 0.0 | 4.8 | 0.00 | 0.89 | 0.81 | 59 | 1014.8 |
| 20260505081301 | 11 | 0 | 3.2 | 4.8 | 0.00 | 0.89 | 0.81 | 59 | 1014.8 |
| 20260505080802 | 11 | 0 | 1.6 | 4.8 | 0.00 | 0.89 | 0.81 | 59 | 1014.7 |
| 20260505080301 | 11 | 0 | 1.6 | 3.2 | 0.00 | 0.89 | 0.81 | 59 | 1014.5 |
| 20260505075801 | 11 | 0 | 0.0 | 4.8 | 0.00 | 0.89 | 0.81 | 59 | 1014.6 |
| 20260505075304 | 11 | 0 | 1.6 | 4.8 | 0.00 | 0.89 | 0.81 | 59 | 1014.6 |
| 20260505074801 | 11 | 0 | 1.6 | 4.8 | 0.00 | 0.89 | 0.81 | 59 | 1014.7 |
| 20260505074300 | 11 | 0 | 3.2 | 8.0 | 0.00 | 0.89 | 0.81 | 59 | 1014.6 |
| 20260505073801 | 11 | 0 | 4.8 | 8.0 | 0.00 | 0.89 | 0.81 | 59 | 1014.6 |
| 20260505073509 | 11 | 0 | 6.4 | 8.0 | 0.00 | 0.89 | 0.81 | 61 | 1014.6 |
| 20260505073459 | 11 | 0 | 4.8 | 8.0 | 0.00 | 0.89 | 0.81 | 60 | 1014.6 |
| 20260505072301 | 11 | 0 | 4.8 | 6.4 | 0.00 | 0.89 | 0.81 | 61 | 1014.5 |
| 20260505071800 | 11 | 0 | 4.8 | 6.4 | 0.00 | 0.89 | 0.81 | 61 | 1014.5 |
| 20260505071300 | 11 | 0 | 3.2 | 3.2 | 0.00 | 0.89 | 0.81 | 62 | 1014.6 |
| 20260505070800 | 11 | 0 | 0.0 | 3.2 | 0.00 | 0.89 | 0.81 | 62 | 1014.6 |
| 20260505070300 | 11 | 0 | 0.0 | 6.4 | 0.00 | 0.89 | 0.81 | 62 | 1014.5 |
| 20260505065800 | 11 | 0 | 1.6 | 6.4 | 0.00 | 0.89 | 0.81 | 63 | 1014.4 |
| 20260505065259 | 11 | 0 | 3.2 | 4.8 | 0.00 | 0.89 | 0.81 | 64 | 1014.3 |
| 20260505065017 | 11 | 0 | 0.0 | 4.8 | 0.00 | 0.89 | 0.81 | 64 | 1014.4 |
| 20260505064300 | 11 | 0 | 3.2 | 4.8 | 0.00 | 0.89 | 0.81 | 64 | 1014.3 |
| 20260505064025 | 11 | 0 | 3.2 | 3.2 | 0.00 | 0.89 | 0.81 | 64 | 1014.2 |
| 20260505063259 | 11 | 0 | 0.0 | 4.8 | 0.00 | 0.89 | 0.81 | 65 | 1014.2 |
| 20260505062800 | 11 | 0 | 1.6 | 4.8 | 0.00 | 0.89 | 0.81 | 65 | 1014.2 |
| 20260505062517 | 11 | 0 | 3.2 | 6.4 | 0.00 | 0.89 | 0.81 | 65 | 1014.2 |
| 20260505061758 | 10 | 0 | 3.2 | 6.4 | 0.00 | 0.89 | 0.81 | 65 | 1014.1 |
| 20260505061259 | 10 | 0 | 3.2 | 8.0 | 0.00 | 0.89 | 0.81 | 65 | 1014.0 |
| 20260505060759 | 10 | 0 | 3.2 | 11.3 | 0.00 | 0.89 | 0.81 | 65 | 1014.0 |
| 20260505060259 | 10 | 0 | 8.0 | 11.3 | 0.00 | 0.89 | 0.81 | 65 | 1013.9 |
| 20260505060020 | 10 | 0 | 6.4 | 16.1 | 0.00 | 0.89 | 0.81 | 65 | 1013.9 |
| 20260505055258 | 10 | 0 | 9.7 | 16.1 | 0.00 | 0.89 | 0.81 | 65 | 1013.9 |
| 20260505054758 | 10 | 0 | 6.4 | 9.7 | 0.00 | 0.89 | 0.81 | 65 | 1013.8 |
| 20260505054258 | 10 | 0 | 6.4 | 9.7 | 0.03 | 0.89 | 0.81 | 65 | 1013.9 |
| 20260505053758 | 10 | 0 | 4.8 | 8.0 | 0.03 | 0.89 | 0.81 | 65 | 1014.0 |
| 20260505053258 | 10 | 0 | 3.2 | 9.7 | 0.05 | 0.89 | 0.81 | 65 | 1013.9 |
| 20260505052757 | 10 | 0 | 3.2 | 9.7 | 0.05 | 0.89 | 0.81 | 65 | 1013.9 |
| 20260505052256 | 10 | 0 | 4.8 | 9.7 | 0.10 | 0.89 | 0.81 | 65 | 1013.9 |
| 20260505051756 | 10 | 0 | 1.6 | 9.7 | 0.13 | 0.89 | 0.81 | 66 | 1013.9 |
| 20260505051256 | 10 | 0 | 4.8 | 9.7 | 0.18 | 0.89 | 0.81 | 66 | 1014.0 |
| 20260505051018 | 11 | 0 | 3.2 | 6.4 | 0.20 | 0.89 | 0.81 | 66 | 1014.0 |
| 20260505050255 | 11 | 0 | 3.2 | 6.4 | 0.23 | 0.89 | 0.81 | 66 | 1014.0 |
| 20260505041754 | 11 | 0 | 1.6 | 4.8 | 0.46 | 0.64 | 0.69 | 65 | 1014.5 |
| 20260505041254 | 11 | 0 | 3.2 | 4.8 | 0.43 | 0.64 | 0.64 | 65 | 1014.6 |
| 20260505041010 | 11 | 0 | 3.2 | 4.8 | 0.43 | 0.64 | 0.61 | 65 | 1014.5 |
| 20260505040254 | 11 | 0 | 0.0 | 3.2 | 0.41 | 0.64 | 0.58 | 64 | 1014.6 |
| 20260505035754 | 11 | 0 | 0.0 | 6.4 | 0.38 | 0.25 | 0.53 | 64 | 1014.7 |
| 20260505035255 | 11 | 0 | 3.2 | 6.4 | 0.36 | 0.25 | 0.51 | 64 | 1014.8 |
| 20260505034754 | 11 | 0 | 3.2 | 4.8 | 0.33 | 0.25 | 0.48 | 64 | 1014.9 |
| 20260505034254 | 11 | 0 | 1.6 | 4.8 | 0.28 | 0.25 | 0.43 | 63 | 1015.0 |
| 20260505033754 | 11 | 0 | 1.6 | 4.8 | 0.23 | 0.25 | 0.41 | 63 | 1015.0 |
| 20260505033254 | 11 | 0 | 1.6 | 4.8 | 0.20 | 0.25 | 0.33 | 63 | 1015.0 |
| 20260505033237 | 11 | 0 | 1.6 | 4.8 | 0.18 | 0.25 | 0.33 | 62 | 1014.9 |
| 20260505032254 | 11 | 0 | 0.0 | 3.2 | 0.15 | 0.25 | 0.28 | 61 | 1014.9 |
| 20260505031754 | 11 | 0 | 0.0 | 4.8 | 0.10 | 0.25 | 0.23 | 61 | 1014.9 |
| 20260505031512 | 11 | 0 | 1.6 | 4.8 | 0.08 | 0.25 | 0.23 | 61 | 1014.9 |
| 20260505030753 | 11 | 0 | 1.6 | 4.8 | 0.05 | 0.25 | 0.20 | 61 | 1014.9 |
| 20260505030253 | 11 | 0 | 1.6 | 3.2 | 0.05 | 0.25 | 0.18 | 60 | 1014.9 |
| 20260505025754 | 11 | 0 | 0.0 | 0.0 | 0.05 | 0.23 | 0.15 | 60 | 1014.9 |
| 20260505025253 | 11 | 0 | 0.0 | 3.2 | 0.03 | 0.23 | 0.15 | 60 | 1014.9 |
| 20260505024753 | 11 | 0 | 0.0 | 4.8 | 0.03 | 0.23 | 0.15 | 60 | 1015.0 |
| 20260505024253 | 11 | 0 | 0.0 | 4.8 | 0.03 | 0.23 | 0.15 | 59 | 1015.0 |
| 20260505023753 | 11 | 0 | 1.6 | 3.2 | 0.03 | 0.23 | 0.15 | 59 | 1015.0 |
| 20260505023253 | 11 | 0 | 0.0 | 4.8 | 0.03 | 0.23 | 0.15 | 59 | 1015.1 |
| 20260505022752 | 11 | 0 | 1.6 | 4.8 | 0.00 | 0.23 | 0.15 | 59 | 1015.1 |
| 20260505022252 | 11 | 0 | 0.0 | 4.8 | 0.00 | 0.23 | 0.15 | 58 | 1015.1 |
| 20260505021752 | 11 | 0 | 0.0 | 4.8 | 0.00 | 0.23 | 0.15 | 58 | 1015.0 |
| 20260505021252 | 11 | 0 | 0.0 | 1.6 | 0.00 | 0.23 | 0.15 | 58 | 1014.9 |
| 20260505020752 | 11 | 0 | 0.0 | 1.6 | 0.00 | 0.23 | 0.15 | 58 | 1014.9 |
| 20260505020252 | 11 | 0 | 0.0 | 3.2 | 0.00 | 0.23 | 0.15 | 58 | 1014.9 |
| 20260505015752 | 11 | 0 | 0.0 | 3.2 | 0.00 | 0.23 | 0.15 | 58 | 1014.9 |
| 20260505015251 | 11 | 0 | 1.6 | 3.2 | 0.00 | 0.23 | 0.15 | 58 | 1014.9 |
| 20260505014751 | 11 | 0 | 0.0 | 4.8 | 0.00 | 0.23 | 0.15 | 58 | 1014.9 |
| 20260505014252 | 11 | 0 | 1.6 | 4.8 | 0.00 | 0.23 | 0.15 | 58 | 1014.8 |
| 20260505013751 | 11 | 0 | 1.6 | 9.7 | 0.00 | 0.23 | 0.15 | 58 | 1014.8 |
| 20260505013251 | 11 | 0 | 3.2 | 9.7 | 0.00 | 0.23 | 0.15 | 58 | 1014.8 |
| 20260505012751 | 11 | 0 | 3.2 | 4.8 | 0.03 | 0.23 | 0.15 | 59 | 1014.8 |